This demonstration page uses our WeatherBlox Daily Observations layout. Learn more.

Left ArrowRight Arrow

Hourly Observations for May 5, 2017

Temp ( °F °C ) Dew Point ( °F °C ) Humidity (%) Winds ( mph kmh ) Pressure ( in mb ) Visibility ( mi km ) Precip ( " mm )
12:54 am 00:54 Clear 45 7.2 41 5 86 86 N 7 11 30.06 1018 10 16.0934 0 0
1:54 am 01:54 Clear 46 7.8 40 4.4 79 79 N 3 6 30.06 1018 10 16.0934 0 0
2:54 am 02:54 Clear 42 5.6 39 3.9 89 89 Calm 30.06 1018 10 16.0934 0 0
3:54 am 03:54 Clear 43 6.1 39 3.9 86 86 N 6 9 30.05 1018 10 16.0934 0 0
4:54 am 04:54 Clear 43 6.1 39 3.9 86 86 Calm 30.05 1018 10 16.0934 0 0
5:54 am 05:54 Clear 42 5.6 39 3.9 89 89 Calm 30.05 1018 10 16.0934 0 0
6:54 am 06:54 Sunny 42 5.6 39 3.9 89 89 Calm 30.07 1018 10 16.0934 0 0
7:54 am 07:54 Sunny 50 10 41 5 71 71 Calm 30.06 1018 10 16.0934 0 0
8:54 am 08:54 Sunny 56 13.3 43 6.1 62 62 Calm 30.06 1018 10 16.0934 0 0
9:54 am 09:54 Sunny 66 18.9 40 4.4 39 39 NW 8 13 30.04 1017 10 16.0934 0 0
10:54 am 10:54 Sunny 71 21.7 38 3.3 30 30 W 8 13 30.04 1017 10 16.0934 0 0
11:54 am 11:54 Sunny 73 22.8 38 3.3 28 28 WNW 8 13 30.03 1017 10 16.0934 0 0
12:54 pm 12:54 Sunny 74 23.3 36 2.2 25 25 VRB 5 7 30.01 1016 10 16.0934 0 0
1:54 pm 13:54 Sunny 76 24.4 37 2.8 24 24 NNW 14 22 29.98 1015 10 16.0934 0 0
2:54 pm 14:54 Sunny 77 25 36 2.2 23 23 WNW 8 13 29.97 1015 10 16.0934 0 0
3:54 pm 15:54 Sunny 77 25 35 1.7 22 22 W 8 13 29.95 1014 10 16.0934 0 0
4:54 pm 16:54 Sunny 78 25.6 36 2.2 22 22 VRB 5 7 29.92 1013 10 16.0934 0 0
5:54 pm 17:54 Sunny 78 25.6 36 2.2 22 22 NNW 7 11 29.91 1013 10 16.0934 0 0
6:54 pm 18:54 Sunny 77 25 36 2.2 23 23 NW 6 9 29.9 1012 10 16.0934 0 0
7:54 pm 19:54 Sunny 74 23.3 38 3.3 27 27 WNW 3 6 29.89 1012 10 16.0934 0 0
8:54 pm 20:54 Clear 65 18.3 44 6.7 47 47 Calm 29.89 1012 10 16.0934 0 0
9:54 pm 21:54 Clear 62 16.7 44 6.7 52 52 Calm 29.88 1012 10 16.0934 0 0
10:54 pm 22:54 Clear 63 17.2 41 5 45 45 Calm 29.88 1012 10 16.0934 0 0
11:54 pm 23:54 Clear 59 15 42 5.6 54 54 Calm 29.88 1012 10 16.0934 0 0

Powered by AerisWeather